Regional Weather Roundup
Issued by NWS

Home | Current Version | Previous Version | Text Only | Print | Product List | Glossary On
Versions: 1 2 3 4 5 6 7 8 9 10 11 12 13 14 15 16 17 18 19 20 21 22 23 24 25 26 27 28 29 30 31 32 33 34 35 36 37 38 39 40 41 42 43 44 45 46 47 48 49 50
000
ASUS42 KTBW 271115
RWRFL
FLORIDA REGIONAL WEATHER ROUNDUP
NATIONAL WEATHER SERVICE TAMPA BAY RUSKIN FL
700 AM EDT FRI MAR 27 2015

NOTE: "FAIR" INDICATES FEW OR NO CLOUDS BELOW 12,000 FEET WITH NO
SIGNIFICANT WEATHER AND/OR OBSTRUCTIONS TO VISIBILITY.


FLZ001>010-012>015-112-114-115-271200-
PANHANDLE FLORIDA

CITY           SKY/WX    TMP DP  RH WIND       PRES   REMARKS
PENSACOLA      CLOUDY    56  52  86 NW14      29.86R
PENSACOLA NAS  CLOUDY    57  53  86 NW10      29.87R
MILTON NAS     CLOUDY    55  51  86 N12       29.86
CRESTVIEW      CLOUDY    57  54  89 NW10      29.85R
DUKE FIELD     CLOUDY    58  55  89 NW13      29.83R
VALPARAISO     CLOUDY    60  56  87 NW9       29.83R
MARY ESTHER    CLOUDY    59  52  76 N16       29.83
TRI COUNTY     PTSUNNY   63  61  93 VRB5      29.80R
PANAMA CITY    CLOUDY    65  63  93 SW5       29.79S
TYNDALL AFB    DRIZZLE   68  64  88 NW9       29.80R
APALACHICOLA   CLOUDY    70  64  81 NW10      29.81R

STATION/POSITION SKY/WX   TEMP    WIND        PRES    WAVE   SWELL
                          AIR SEA DIR/SP/G            HT/PER HT/PER
                          (F)     (DEG/KT/KT) (MB)    (FT/S) (FT/S)
30.1N   87.6W              60 68  330/ 17/ 21 1010.2R   4/ 6   2/ 7
29.2N   88.2W              64 72  330/ 19/ 23 1011.0R   3/ 4   2/ 7
28.8N   86.0W              72 76  300/ 21/ 25 1010.1R   5/ 5
PANAMA CITY BEAC           68 69  280/ 18/ 21 1008.6F
CAPE SAN BLAS    NOT AVBL
TOWER C                    68     280/ 18/ 19 1009.7R
28.5N   84.5W              73 71  240/ 16/ 19 1010.3R   3/ 7   2/ 7

$$
FLZ011-016>038-118-127-128-134-139-239-271200-
NORTH FLORIDA

CITY           SKY/WX    TMP DP  RH WIND       PRES   REMARKS
MARIANNA       CLOUDY    63  63 100 W6        29.78S
TALLAHASSEE    CLOUDY    65  63  93 W5        29.79S FOG
PERRY          RAIN      65  65  97 S6        29.80F
CROSS CITY       N/A     65  64  97 SW3       29.81R
LAKE CITY      CLOUDY    63  63 100 SW7       29.81R
GAINESVILLE    MOCLDY    62  62 100 SW3       29.81R
MAYPORT NAS    CLOUDY    63  63 100 S7        29.79R
JACKSONVILLE   MOCLDY    63  63 100 S7        29.78S
JAX NAS        MOCLDY    68  63  84 S8        29.80S
JAX CRAIG      MOCLDY    64  62  93 SW5       29.79R
JAX CECIL      MOCLDY    63  63 100 S6        29.80R
FERNANDINA BEA FAIR      68  66  94 SW7       29.77R
ST AUGUSTINE   CLOUDY    64  64 100 S3        29.80F

STATION/POSITION SKY/WX   TEMP    WIND        PRES    WAVE   SWELL
                          AIR SEA DIR/SP/G            HT/PER HT/PER
                          (F)     (DEG/KT/KT) (MB)    (FT/S) (FT/S)
SHELL POINT                68     240/  9/ 11   N/A
KEATON BEACH               68     250/ 15/ 17 1009.4R
CEDAR KEY                  70     240/ 10/ 15 1010.3R
FERNANDINA                 65 64  200/  9/ 12 1007.3F
30.7N   81.3W                 62                N/A     2/ 8
MAYPORT                    65 63  210/  4/  5 1008.4F
31.4N   80.9W              62 60  230/  8/ 10 1007.5R   3/ 8   2/ 8
ST AUGUSTINE               64 63  190/  2/  3 1009.7R

$$
FLZ040-043>046-052-053-057-058-063-144-271200-
INTERIOR CENTRAL FLORIDA

CITY           SKY/WX    TMP DP  RH WIND       PRES   REMARKS
OCALA          CLOUDY    64  61  88 CALM      29.82R
THE VILLAGES     N/A     64  64 100 S7        29.72R
LEESBURG       FAIR      65  63  93 S13       29.82S
SANFORD        PTCLDY    65  63  93 S8        29.82R
ORLANDO EXEC   CLEAR     66  64  93 S10       29.83R
ORLANDO INTL   PTCLDY    65  64  97 S7        29.84R
KISSIMMEE      CLEAR     66  64  94 S6        29.85
WINTER HAVEN   PTCLDY    67  65  93 S7        29.86R
BARTOW         FAIR      63 N/A N/A SE6       29.86R
OKEECHOBEE     RAIN      70  70 100 S6        29.89F

$$
FLZ041-047-054-059-064-141-147-271200-
EAST CENTRAL FLORIDA

CITY           SKY/WX    TMP DP  RH WIND       PRES   REMARKS
ORMOND BEACH   PTCLDY    64  63  94 NW3       29.81
DAYTONA BEACH  PTCLDY    65  64  97 S6        29.81R
DELAND           N/A    N/A N/A N/A S7        29.81S
NEW SMYRNA BEA PTCLDY    64  64 100 S9        29.82
JFK SPACE CTR  PTCLDY    66  64  91 S8        29.81S
TITUSVILLE     PTCLDY    64  64 100 S9        29.84
CAPE CANAVERAL PTCLDY    66  64  94 S10       29.83R
PATRICK AFB    PTCLDY    68  65  90 S9        29.85S
MELBOURNE      PTCLDY    67  65  93 S9        29.86F
VERO BEACH     LGT RAIN  72  66  81 VRB5      29.89R
FT PIERCE      MOCLDY    72  71  97 SW6       29.89R FOG
STUART         MOCLDY    72  70  94 CALM      29.91R

STATION/POSITION SKY/WX   TEMP    WIND        PRES    WAVE   SWELL
                          AIR SEA DIR/SP/G            HT/PER HT/PER
                          (F)     (DEG/KT/KT) (MB)    (FT/S) (FT/S)
28.5N   80.2W              68 68  250/  6/  8 1010.5F
28.9N   78.5W              77 76  240/ 17/ 21 1010.8F
TRIDENT PIER               68 74  170/  5/  6 1010.5F
28.4N   80.5W                 72                N/A     2/ 8
27.5N   80.2W                 76                N/A     2/ 8

$$
FLZ050-056-061-142-242-148-248-149-249-151-251-155-255-
160-260-271200-
WEST CENTRAL FLORIDA

CITY           SKY/WX    TMP DP  RH WIND       PRES   REMARKS
CRYSTAL RIVER  FAIR      63  61  94 CALM      29.82R
INVERNESS      FAIR      63  34  34 S3        29.83R
BROOKSVILLE    CLEAR     63  62  97 S3        29.84R
ZEPHYRHILLS    FAIR      61  61 100 CALM      29.84S
CLEARWATER     PTCLDY    66  65  96 S6        29.82S
TAMPA INTL     MOCLDY    68  64  87 SE6       29.83S
TAMPA EXEC     CLEAR     68  64  88 CALM      29.84R
PLANT CITY     CLEAR     66  66 100 S5        29.86R
MACDILL AFB    PTCLDY    69  68  99 S14       29.83S
PETER O KNIGHT CLEAR     70  68  94 S8        29.84R
ST PETERSBURG  PTCLDY    70  66  87 S15       29.82R
SARASOTA       MOCLDY    65  64  97 SE5       29.84R
VENICE         FAIR      68  68 100 SE5       29.87R

STATION/POSITION SKY/WX   TEMP    WIND        PRES    WAVE   SWELL
                          AIR SEA DIR/SP/G            HT/PER HT/PER
                          (F)     (DEG/KT/KT) (MB)    (FT/S) (FT/S)
CEDAR KEY                  70     240/ 10/ 15 1010.3R
28.5N   84.5W              73 71  240/ 16/ 19 1010.3R   3/ 7   2/ 7
27.3N   84.2W                 74                N/A     3/ 6
CLEARWATER BEACH           68 75  130/  8/ 11 1009.8F
MIDDLE TAMPA BAY           69     160/ 10/ 10 1010.4F
VENICE                     68 76  120/  9/ 10 1010.4F

$$
FLZ066-069-070-075>078-162-262-165-265-271200-
SOUTHWEST FLORIDA AND KEYS

CITY           SKY/WX    TMP DP  RH WIND       PRES   REMARKS
PUNTA GORDA    CLOUDY    69  67  93 S10       29.88F
FT MYERS       LGT RAIN  70  68  93 S3        29.90F
SOUTHWEST INTL LGT RAIN  73  70  90 NW6       29.91R FOG
NAPLES         PTCLDY    77  75  93 W7        29.91R FOG
MARCO ISLAND   PTSUNNY   75  72  88 W7        29.92R
IMMOKALEE      CLOUDY   N/A N/A N/A CALM      29.92S VSB 0
MARATHON       CLEAR     79  75  87 SW7       29.93R
KEY WEST NAS   PTCLDY    78  73  84 SW12      29.94R
KEY WEST INTL  CLEAR     78  76  93 W10       29.94R

STATION/POSITION SKY/WX   TEMP    WIND        PRES    WAVE   SWELL
                          AIR SEA DIR/SP/G            HT/PER HT/PER
                          (F)     (DEG/KT/KT) (MB)    (FT/S) (FT/S)
VENICE                     68 76  120/  9/ 10 1010.4F
NAPLES                     77 79  240/  9/ 10 1012.3F
26.0N   85.6W              76 76  180/ 12/ 16 1011.3S   4/ 6   3/ 6
DRY TORTUGAS               78     260/  7/  7 1013.0R
NW FL BAY                  81     230/ 13/ 15 1013.2
SAND KEY                   78     250/  9/ 10 1013.7R
SOMBRERO KEY               79     210/ 15/ 17 1014.1R
LONG KEY                   79 81  230/ 12/ 14 1014.4R
MOLASSES REEF              78 78  210/ 14/ 16 1013.5R

$$
FLZ067-068-071>074-168-172>174-271200-
SOUTHEAST FLORIDA

CITY           SKY/WX    TMP DP  RH WIND       PRES   REMARKS
W PALM BEACH   PTCLDY    75  72  90 SW8       29.90R
FT LAUDER-EXEC CLEAR     76  70  82 SW8       29.92R
FT LAUDERDALE  CLEAR     76  70  82 SW7       29.91R
POMPANO BEACH  CLEAR     76  69  79 SW7       29.91R
PEMBROKE PINES CLEAR     75  69  81 S6        29.93R
OPA LOCKA      CLEAR     76  70  82 S9        29.93R
MIAMI          PTCLDY    75  69  81 VRB5      29.93R
WEST KENDALL   CLEAR     74  70  87 S5        29.93R
HOMESTEAD      CLEAR     72  70  92 S3        29.93R

STATION/POSITION SKY/WX   TEMP    WIND        PRES    WAVE   SWELL
                          AIR SEA DIR/SP/G            HT/PER HT/PER
                          (F)     (DEG/KT/KT) (MB)    (FT/S) (FT/S)
PORT EVERGLADES            77     200/  3/  7 1012.7F
VIRGINIA KEY               79 80  200/ 13/ 16 1012.7S


USA.gov is the U.S. government's official web portal to all federal, state and local government web resources and services.